Time,TemperatureF,DewpointF,PressureIn,WindDirection,WindDirectionDegrees,WindSpeedMPH,WindSpeedGustMPH,Humidity,HourlyPrecipIn,Conditions,Clouds,dailyrainin,SoftwareType,DateUTC
2013-07-14 00:01:00,76.4,75.8,30.09,ESE,112,4.7,4.7,98,0.00,,-RA,0.04,VWS V14.01,2013-07-14 04:01:00,
2013-07-14 00:02:00,76.4,75.8,30.09,SE,135,4.0,4.0,98,0.00,,-RA,0.00,VWS V14.01,2013-07-14 04:02:00,
2013-07-14 00:03:00,76.4,75.8,30.09,SE,135,4.0,4.0,98,0.00,,-RA,0.00,VWS V14.01,2013-07-14 04:03:00,
2013-07-14 00:08:00,76.4,75.8,30.09,ESE,112,6.0,6.0,98,0.00,,-RA,0.00,VWS V14.01,2013-07-14 04:08:00,
2013-07-14 00:13:00,76.4,75.8,30.12,ESE,112,7.8,7.8,98,0.00,,-RA,0.00,VWS V14.01,2013-07-14 04:13:00,
2013-07-14 00:19:00,76.4,75.8,30.12,ESE,112,4.9,4.9,98,0.00,,-RA,0.00,VWS V14.01,2013-07-14 04:19:00,
2013-07-14 00:24:00,76.4,75.8,30.12,SE,135,8.5,8.5,98,0.00,,-RA,0.00,VWS V14.01,2013-07-14 04:24:00,
2013-07-14 00:29:00,76.2,75.6,30.12,ESE,112,6.5,6.5,98,0.00,,-RA,0.00,VWS V14.01,2013-07-14 04:29:00,
2013-07-14 00:34:00,76.0,75.4,30.12,ESE,112,3.8,3.8,98,0.00,,-RA,0.00,VWS V14.01,2013-07-14 04:34:00,
2013-07-14 00:39:00,75.9,75.3,30.12,ESE,112,8.7,8.7,98,0.00,,OVC013,0.00,VWS V14.01,2013-07-14 04:39:00,
2013-07-14 00:44:00,75.7,75.1,30.12,ESE,112,5.6,5.6,98,0.00,,OVC013,0.00,VWS V14.01,2013-07-14 04:44:00,
2013-07-14 00:49:00,75.7,75.1,30.12,East,90,5.8,5.8,98,0.00,,OVC013,0.00,VWS V14.01,2013-07-14 04:49:00,
2013-07-14 00:54:00,75.7,75.1,30.12,ESE,112,5.8,5.8,98,0.00,,OVC013,0.00,VWS V14.01,2013-07-14 04:54:00,
2013-07-14 00:59:00,75.5,74.6,30.15,East,90,4.3,4.3,97,0.00,,OVC013,0.00,VWS V14.01,2013-07-14 04:59:00,
2013-07-14 01:04:00,75.7,75.1,30.15,ESE,112,4.9,4.9,98,0.00,,OVC013,0.00,VWS V14.01,2013-07-14 05:04:00,
2013-07-14 01:09:00,75.7,75.1,30.15,SE,135,4.0,4.0,98,0.00,,OVC013,0.00,VWS V14.01,2013-07-14 05:09:00,
2013-07-14 01:14:00,75.7,75.1,30.15,ESE,112,6.5,6.5,98,0.00,,OVC013,0.00,VWS V14.01,2013-07-14 05:14:00,
2013-07-14 01:19:00,75.7,75.1,30.15,ENE,68,7.2,7.2,98,0.00,,OVC013,0.00,VWS V14.01,2013-07-14 05:19:00,
2013-07-14 01:24:00,75.7,75.1,30.15,ESE,112,6.0,6.0,98,0.00,,OVC013,0.00,VWS V14.01,2013-07-14 05:24:00,
2013-07-14 01:29:00,75.7,75.1,30.18,SE,135,7.2,7.2,98,0.00,,OVC013,0.00,VWS V14.01,2013-07-14 05:29:00,
2013-07-14 01:34:00,75.5,74.6,30.18,East,90,7.8,7.8,97,0.00,,OVC013,0.00,VWS V14.01,2013-07-14 05:34:00,
2013-07-14 01:39:00,75.3,74.4,30.18,ESE,112,6.5,6.5,97,0.00,,OVC013,0.00,VWS V14.01,2013-07-14 05:39:00,
2013-07-14 01:44:00,75.3,74.4,30.15,SE,135,3.8,3.8,97,0.00,,OVC013,0.00,VWS V14.01,2013-07-14 05:44:00,
2013-07-14 01:49:00,75.3,74.4,30.15,SE,135,5.4,5.4,97,0.00,,OVC013,0.00,VWS V14.01,2013-07-14 05:49:00,
2013-07-14 01:54:00,75.3,74.4,30.15,ESE,112,4.0,4.0,97,0.00,,OVC013,0.00,VWS V14.01,2013-07-14 05:54:00,
2013-07-14 01:59:00,75.3,74.4,30.15,ESE,112,4.7,4.7,97,0.00,,OVC013,0.00,VWS V14.01,2013-07-14 05:59:00,
2013-07-14 02:04:00,75.3,74.7,30.15,ESE,112,4.3,4.3,98,0.00,,OVC013,0.00,VWS V14.01,2013-07-14 06:04:00,
2013-07-14 02:10:00,75.3,74.7,30.15,East,90,4.0,4.0,98,0.00,,OVC013,0.00,VWS V14.01,2013-07-14 06:10:00,
2013-07-14 02:15:00,75.5,74.9,30.15,ESE,112,3.1,3.1,98,0.00,,OVC013,0.00,VWS V14.01,2013-07-14 06:15:00,
2013-07-14 02:20:00,75.5,74.9,30.15,East,90,3.4,3.4,98,0.00,,OVC013,0.00,VWS V14.01,2013-07-14 06:20:00,
2013-07-14 02:25:00,75.5,74.9,30.15,ESE,112,4.0,4.0,98,0.00,,OVC013,0.00,VWS V14.01,2013-07-14 06:25:00,
2013-07-14 02:30:00,75.5,74.9,30.15,SE,135,4.3,4.3,98,0.00,,OVC013,0.00,VWS V14.01,2013-07-14 06:30:00,
2013-07-14 02:35:00,75.3,74.7,30.15,SE,135,3.1,3.1,98,0.00,,OVC013,0.00,VWS V14.01,2013-07-14 06:35:00,
2013-07-14 02:40:00,75.3,74.7,30.15,ESE,112,6.0,6.0,98,0.00,,BKN037,0.00,VWS V14.01,2013-07-14 06:40:00,
2013-07-14 02:45:00,75.5,74.9,30.15,SE,135,3.4,3.4,98,0.00,,BKN037,0.00,VWS V14.01,2013-07-14 06:45:00,
2013-07-14 02:50:00,75.5,74.9,30.15,SE,135,6.7,6.7,98,0.00,,BKN037,0.00,VWS V14.01,2013-07-14 06:50:00,
2013-07-14 02:55:00,75.5,74.9,30.15,SE,135,7.4,7.4,98,0.00,,BKN037,0.00,VWS V14.01,2013-07-14 06:55:00,
2013-07-14 03:00:00,75.5,74.9,30.15,SE,135,5.4,5.4,98,0.00,,BKN037,0.00,VWS V14.01,2013-07-14 07:00:00,
2013-07-14 03:05:00,75.5,74.9,30.15,ESE,112,3.8,3.8,98,0.00,,BKN037,0.00,VWS V14.01,2013-07-14 07:05:00,
2013-07-14 03:10:00,75.5,74.9,30.15,ESE,112,5.8,5.8,98,0.00,,BKN037,0.00,VWS V14.01,2013-07-14 07:10:00,
2013-07-14 03:15:00,75.5,74.9,30.15,SE,135,5.6,5.6,98,0.00,,BKN037,0.00,VWS V14.01,2013-07-14 07:15:00,
2013-07-14 03:20:00,75.5,74.9,30.15,ESE,112,3.4,3.4,98,0.00,,BKN037,0.00,VWS V14.01,2013-07-14 07:20:00,
2013-07-14 03:25:00,75.5,74.9,30.15,SSE,158,5.6,5.6,98,0.00,,BKN037,0.00,VWS V14.01,2013-07-14 07:25:00,
2013-07-14 03:30:00,75.3,74.7,30.15,SE,135,5.4,5.4,98,0.00,,BKN037,0.00,VWS V14.01,2013-07-14 07:30:00,
2013-07-14 03:35:00,75.5,74.9,30.15,SE,135,3.8,3.8,98,0.00,,OVC050,0.00,VWS V14.01,2013-07-14 07:35:00,
2013-07-14 03:40:00,75.3,74.7,30.15,ESE,112,4.0,4.0,98,0.00,,OVC050,0.00,VWS V14.01,2013-07-14 07:40:00,
2013-07-14 03:45:00,75.1,74.5,30.15,SE,135,4.0,4.0,98,0.00,,OVC050,0.00,VWS V14.01,2013-07-14 07:45:00,
2013-07-14 03:46:00,75.1,74.5,30.15,ESE,112,4.0,4.0,98,0.00,,OVC050,0.00,VWS V14.01,2013-07-14 07:46:00,
2013-07-14 03:51:00,75.1,74.5,30.15,ESE,112,4.0,4.0,98,0.00,,OVC050,0.00,VWS V14.01,2013-07-14 07:51:00,
2013-07-14 03:56:00,75.0,74.4,30.12,ESE,112,3.8,3.8,98,0.00,,OVC050,0.00,VWS V14.01,2013-07-14 07:56:00,
2013-07-14 04:01:00,75.0,74.4,30.12,SE,135,4.3,4.3,98,0.00,,OVC050,0.00,VWS V14.01,2013-07-14 08:01:00,
2013-07-14 04:06:00,75.0,74.4,30.12,ESE,112,4.3,4.3,98,0.00,,OVC050,0.00,VWS V14.01,2013-07-14 08:06:00,
2013-07-14 04:11:00,75.0,74.4,30.15,ESE,112,4.0,4.0,98,0.00,,OVC050,0.00,VWS V14.01,2013-07-14 08:11:00,
2013-07-14 04:16:00,75.0,74.4,30.15,East,90,4.9,4.9,98,0.00,,OVC050,0.00,VWS V14.01,2013-07-14 08:16:00,
2013-07-14 04:17:00,75.0,74.4,30.15,East,90,4.5,4.5,98,0.00,,OVC050,0.00,VWS V14.01,2013-07-14 08:17:00,
2013-07-14 04:22:00,75.0,74.4,30.15,ESE,112,4.9,4.9,98,0.00,,OVC050,0.00,VWS V14.01,2013-07-14 08:22:00,
2013-07-14 04:27:00,75.0,74.4,30.12,SE,135,5.6,5.6,98,0.00,,OVC050,0.00,VWS V14.01,2013-07-14 08:27:00,
2013-07-14 04:32:00,75.0,74.4,30.12,ESE,112,5.8,5.8,98,0.00,,OVC050,0.00,VWS V14.01,2013-07-14 08:32:00,
2013-07-14 04:37:00,75.0,74.4,30.12,ESE,112,7.2,7.2,98,0.00,,OVC060,0.00,VWS V14.01,2013-07-14 08:37:00,
2013-07-14 04:42:00,75.0,74.1,30.15,SE,135,7.8,7.8,97,0.00,,OVC060,0.00,VWS V14.01,2013-07-14 08:42:00,
2013-07-14 04:47:00,74.8,73.9,30.15,SE,135,5.8,5.8,97,0.00,,OVC060,0.00,VWS V14.01,2013-07-14 08:47:00,
2013-07-14 04:52:00,74.6,73.7,30.15,SE,135,6.3,6.3,97,0.00,,OVC060,0.00,VWS V14.01,2013-07-14 08:52:00,
2013-07-14 04:57:00,74.4,73.5,30.12,ESE,112,5.4,5.4,97,0.00,,OVC060,0.00,VWS V14.01,2013-07-14 08:57:00,
2013-07-14 05:02:00,74.4,73.5,30.12,ESE,112,4.3,4.3,97,0.00,,OVC060,0.00,VWS V14.01,2013-07-14 09:02:00,
2013-07-14 05:07:00,74.2,73.3,30.12,ESE,112,6.0,6.0,97,0.00,,OVC060,0.00,VWS V14.01,2013-07-14 09:07:00,
2013-07-14 05:12:00,74.4,73.8,30.15,ESE,112,5.4,5.4,98,0.00,,OVC060,0.00,VWS V14.01,2013-07-14 09:12:00,
2013-07-14 05:17:00,74.4,73.8,30.15,ESE,112,4.9,4.9,98,0.00,,OVC060,0.00,VWS V14.01,2013-07-14 09:17:00,
2013-07-14 05:22:00,74.4,73.8,30.15,ESE,112,5.8,5.8,98,0.00,,OVC060,0.00,VWS V14.01,2013-07-14 09:22:00,
2013-07-14 05:27:00,74.6,74.0,30.15,ESE,112,3.6,3.6,98,0.00,,OVC060,0.00,VWS V14.01,2013-07-14 09:27:00,
2013-07-14 05:32:00,74.6,74.0,30.15,ESE,112,5.6,5.6,98,0.00,,OVC060,0.00,VWS V14.01,2013-07-14 09:32:00,
2013-07-14 05:37:00,74.8,74.2,30.15,East,90,3.8,3.8,98,0.00,,OVC070,0.00,VWS V14.01,2013-07-14 09:37:00,
2013-07-14 05:42:00,74.8,74.2,30.15,SSE,158,3.6,3.6,98,0.04,,OVC070,0.04,VWS V14.01,2013-07-14 09:42:00,
2013-07-14 05:47:00,75.0,74.4,30.15,SE,135,4.9,4.9,98,0.09,,OVC070,0.09,VWS V14.01,2013-07-14 09:47:00,
2013-07-14 05:52:00,75.0,74.4,30.15,ESE,112,3.1,3.1,98,0.09,,OVC070,0.09,VWS V14.01,2013-07-14 09:52:00,
2013-07-14 05:57:00,75.0,74.4,30.18,East,90,3.8,3.8,98,0.09,,OVC070,0.09,VWS V14.01,2013-07-14 09:57:00,
2013-07-14 06:02:00,75.0,74.4,30.18,ESE,112,4.9,4.9,98,0.09,,OVC070,0.09,VWS V14.01,2013-07-14 10:02:00,
2013-07-14 06:07:00,75.1,74.5,30.18,ESE,112,7.4,7.4,98,0.13,,OVC070,0.13,VWS V14.01,2013-07-14 10:07:00,
2013-07-14 06:12:00,75.1,74.5,30.21,ENE,68,9.8,9.8,98,0.17,,OVC070,0.17,VWS V14.01,2013-07-14 10:12:00,
2013-07-14 06:17:00,75.0,74.4,30.21,SE,135,9.0,9.0,98,0.17,,OVC070,0.17,VWS V14.01,2013-07-14 10:17:00,
2013-07-14 06:22:00,74.1,73.2,30.21,ESE,112,3.6,3.6,97,0.17,,OVC070,0.17,VWS V14.01,2013-07-14 10:22:00,
2013-07-14 06:27:00,73.3,71.8,30.21,SE,135,10.7,10.7,95,0.17,,OVC070,0.17,VWS V14.01,2013-07-14 10:27:00,
2013-07-14 06:32:00,72.8,70.7,30.21,SE,135,11.0,11.0,93,0.21,,OVC070,0.21,VWS V14.01,2013-07-14 10:32:00,
2013-07-14 06:38:00,72.6,70.2,30.21,SE,135,6.3,6.3,92,0.21,,-RA,0.21,VWS V14.01,2013-07-14 10:38:00,
2013-07-14 06:43:00,72.6,70.8,30.24,ESE,112,4.3,4.3,94,0.17,,-RA,0.21,VWS V14.01,2013-07-14 10:43:00,
2013-07-14 06:48:00,72.6,71.1,30.24,ESE,112,7.6,7.6,95,0.12,,-RA,0.21,VWS V14.01,2013-07-14 10:48:00,
2013-07-14 06:53:00,72.6,71.4,30.24,SE,135,4.7,4.7,96,0.12,, +RA,0.21,VWS V14.01,2013-07-14 10:53:00,
2013-07-14 06:58:00,72.8,71.6,30.21,ESE,112,2.7,2.7,96,0.12,, +RA,0.21,VWS V14.01,2013-07-14 10:58:00,
2013-07-14 07:03:00,73.0,72.1,30.21,ESE,112,3.8,3.8,97,0.12,, +RA,0.21,VWS V14.01,2013-07-14 11:03:00,
2013-07-14 07:08:00,73.2,72.3,30.21,ESE,112,3.1,3.1,97,0.08,, +RA,0.21,VWS V14.01,2013-07-14 11:08:00,
2013-07-14 07:13:00,73.5,72.9,30.21,SE,135,2.7,2.7,98,0.04,, +RA,0.21,VWS V14.01,2013-07-14 11:13:00,
2013-07-14 07:18:00,73.7,73.1,30.21,ESE,112,1.6,1.6,98,0.04,, +RA,0.21,VWS V14.01,2013-07-14 11:18:00,
2013-07-14 07:23:00,74.1,73.5,30.21,East,90,2.9,2.9,98,0.04,, +RA,0.21,VWS V14.01,2013-07-14 11:23:00,
2013-07-14 07:28:00,74.6,74.0,30.21,ESE,112,2.5,2.5,98,0.04,, +RA,0.21,VWS V14.01,2013-07-14 11:28:00,
2013-07-14 07:33:00,75.0,74.4,30.21,ESE,112,6.7,6.7,98,0.00,, +RA,0.21,VWS V14.01,2013-07-14 11:33:00,
2013-07-14 07:38:00,75.5,74.9,30.21,ESE,112,6.5,6.5,98,0.00,,OVC050,0.21,VWS V14.01,2013-07-14 11:38:00,
2013-07-14 07:43:00,75.7,75.1,30.21,SE,135,5.6,5.6,98,0.00,,OVC050,0.21,VWS V14.01,2013-07-14 11:43:00,
2013-07-14 07:48:00,75.9,75.3,30.21,ESE,112,6.5,6.5,98,0.00,,OVC050,0.21,VWS V14.01,2013-07-14 11:48:00,
2013-07-14 07:53:00,75.5,74.6,30.21,East,90,4.5,4.5,97,0.00,,OVC027,0.21,VWS V14.01,2013-07-14 11:53:00,
2013-07-14 07:58:00,75.9,75.3,30.18,ESE,112,4.9,4.9,98,0.00,,OVC027,0.21,VWS V14.01,2013-07-14 11:58:00,
2013-07-14 08:03:00,75.9,74.9,30.18,SSW,202,8.5,8.5,97,0.00,,OVC027,0.21,VWS V14.01,2013-07-14 12:03:00,
2013-07-14 08:08:00,73.2,70.7,30.18,SSE,158,6.0,6.0,92,0.12,,OVC027,0.33,VWS V14.01,2013-07-14 12:08:00,
2013-07-14 08:13:00,72.4,69.7,30.24,SW,225,4.7,4.7,91,0.25,,OVC027,0.46,VWS V14.01,2013-07-14 12:13:00,
2013-07-14 08:18:00,72.4,70.6,30.24,SE,135,9.6,9.6,94,0.25,,OVC027,0.46,VWS V14.01,2013-07-14 12:18:00,
2013-07-14 08:23:00,72.4,70.9,30.24,ESE,112,3.8,3.8,95,0.29,,OVC027,0.50,VWS V14.01,2013-07-14 12:23:00,
2013-07-14 08:28:00,72.4,71.2,30.24,ESE,112,2.9,2.9,96,0.33,,OVC027,0.54,VWS V14.01,2013-07-14 12:28:00,
2013-07-14 08:33:00,72.6,72.0,30.24,ESE,112,9.8,9.8,98,0.41,,OVC027,0.62,VWS V14.01,2013-07-14 12:33:00,
2013-07-14 08:38:00,72.6,72.0,30.24,ESE,112,8.5,8.5,98,0.50,,OVC010,0.71,VWS V14.01,2013-07-14 12:38:00,
2013-07-14 08:43:00,72.4,71.2,30.24,SE,135,8.1,8.1,96,0.50,,OVC010,0.71,VWS V14.01,2013-07-14 12:43:00,
2013-07-14 08:49:00,72.1,70.3,30.24,ESE,112,4.9,4.9,94,0.54,,OVC010,0.75,VWS V14.01,2013-07-14 12:49:00,
2013-07-14 08:54:00,72.1,70.6,30.24,ESE,112,5.4,5.4,95,0.54,,OVC010,0.75,VWS V14.01,2013-07-14 12:54:00,
2013-07-14 08:59:00,72.3,71.1,30.24,ESE,112,5.4,5.4,96,0.54,,OVC010,0.75,VWS V14.01,2013-07-14 12:59:00,
2013-07-14 09:04:00,72.3,71.1,30.24,East,90,6.5,6.5,96,0.54,,OVC010,0.75,VWS V14.01,2013-07-14 13:04:00,
2013-07-14 09:09:00,72.1,70.6,30.24,ESE,112,6.3,6.3,95,0.42,,OVC010,0.75,VWS V14.01,2013-07-14 13:09:00,
2013-07-14 09:14:00,72.4,71.2,30.24,ENE,68,4.9,4.9,96,0.29,,OVC010,0.75,VWS V14.01,2013-07-14 13:14:00,
2013-07-14 09:19:00,72.6,71.4,30.24,East,90,4.0,4.0,96,0.29,,OVC010,0.75,VWS V14.01,2013-07-14 13:19:00,
2013-07-14 09:24:00,73.2,72.0,30.24,East,90,4.0,4.0,96,0.25,,OVC010,0.75,VWS V14.01,2013-07-14 13:24:00,
2013-07-14 09:29:00,73.3,71.5,30.24,SE,135,4.3,4.3,94,0.21,,OVC010,0.75,VWS V14.01,2013-07-14 13:29:00,
2013-07-14 09:34:00,74.4,71.9,30.24,ESE,112,4.0,4.0,92,0.13,,OVC010,0.75,VWS V14.01,2013-07-14 13:34:00,
2013-07-14 09:39:00,75.0,72.2,30.24,SE,135,4.0,4.0,91,0.04,,-RA,0.75,VWS V14.01,2013-07-14 13:39:00,
2013-07-14 09:44:00,74.6,70.1,30.24,ESE,112,5.4,5.4,86,0.04,,-RA,0.75,VWS V14.01,2013-07-14 13:44:00,
2013-07-14 09:49:00,75.3,71.2,30.24,East,90,5.8,5.8,87,0.00,,-RA,0.75,VWS V14.01,2013-07-14 13:49:00,
2013-07-14 09:54:00,75.3,69.8,30.24,ESE,112,6.0,6.0,83,0.00,,-RA,0.75,VWS V14.01,2013-07-14 13:54:00,
2013-07-14 09:59:00,76.0,71.2,30.24,ESE,112,6.0,6.0,85,0.00,,-RA,0.75,VWS V14.01,2013-07-14 13:59:00,
2013-07-14 10:04:00,76.4,71.9,30.24,ESE,112,8.5,8.5,86,0.00,,-RA,0.75,VWS V14.01,2013-07-14 14:04:00,
2013-07-14 10:09:00,76.6,71.7,30.24,East,90,7.2,7.2,85,0.00,,-RA,0.75,VWS V14.01,2013-07-14 14:09:00,
2013-07-14 10:14:00,77.1,72.3,30.24,ESE,112,6.3,6.3,85,0.00,,-RA,0.75,VWS V14.01,2013-07-14 14:14:00,
2013-07-14 10:19:00,77.7,72.4,30.24,East,90,6.0,6.0,84,0.00,, +RA,0.75,VWS V14.01,2013-07-14 14:19:00,
2013-07-14 10:24:00,78.0,72.8,30.24,ESE,112,9.8,9.8,84,0.00,,-RA,0.75,VWS V14.01,2013-07-14 14:24:00,
2013-07-14 10:29:00,78.0,70.6,30.24,East,90,6.7,6.7,78,0.00,,-RA,0.75,VWS V14.01,2013-07-14 14:29:00,
2013-07-14 10:34:00,78.4,72.4,30.24,ESE,112,7.6,7.6,82,0.00,,-RA,0.75,VWS V14.01,2013-07-14 14:34:00,
2013-07-14 10:39:00,78.7,72.4,30.24,East,90,9.6,9.6,81,0.00,,BKN090,0.75,VWS V14.01,2013-07-14 14:39:00,
2013-07-14 10:44:00,78.7,71.3,30.24,SE,135,7.4,7.4,78,0.00,,BKN090,0.75,VWS V14.01,2013-07-14 14:44:00,
2013-07-14 10:49:00,78.4,70.2,30.24,ESE,112,9.8,9.8,76,0.00,,BKN090,0.75,VWS V14.01,2013-07-14 14:49:00,
2013-07-14 10:55:00,79.3,71.8,30.24,ESE,112,3.1,3.1,78,0.00,,BKN023,0.75,VWS V14.01,2013-07-14 14:55:00,
2013-07-14 11:00:00,78.9,69.1,30.24,East,90,8.1,8.1,72,0.00,,BKN023,0.75,VWS V14.01,2013-07-14 15:00:00,
2013-07-14 11:05:00,78.9,69.1,30.24,ESE,112,4.3,4.3,72,0.00,,BKN023,0.75,VWS V14.01,2013-07-14 15:05:00,
2013-07-14 11:10:00,79.1,68.1,30.24,SE,135,7.6,7.6,69,0.00,,BKN023,0.75,VWS V14.01,2013-07-14 15:10:00,
2013-07-14 11:15:00,78.9,67.0,30.27,East,90,7.6,7.6,67,0.00,,BKN023,0.75,VWS V14.01,2013-07-14 15:15:00,
2013-07-14 11:20:00,80.0,70.2,30.27,ESE,112,5.8,5.8,72,0.00,,BKN023,0.75,VWS V14.01,2013-07-14 15:20:00,
2013-07-14 11:25:00,79.3,66.5,30.27,East,90,5.8,5.8,65,0.00,,BKN023,0.75,VWS V14.01,2013-07-14 15:25:00,
2013-07-14 11:30:00,79.1,66.8,30.27,ENE,68,11.0,11.0,66,0.00,,BKN023,0.75,VWS V14.01,2013-07-14 15:30:00,
2013-07-14 11:35:00,79.1,65.9,30.27,ESE,112,8.7,8.7,64,0.00,,BKN041,0.75,VWS V14.01,2013-07-14 15:35:00,
2013-07-14 11:40:00,78.7,66.4,30.27,ESE,112,3.8,3.8,66,0.00,,BKN041,0.75,VWS V14.01,2013-07-14 15:40:00,
2013-07-14 11:45:00,79.1,65.9,30.27,ESE,112,8.7,8.7,64,0.00,,BKN041,0.75,VWS V14.01,2013-07-14 15:45:00,
2013-07-14 11:50:00,79.5,65.8,30.27,ENE,68,10.3,10.3,63,0.00,,BKN041,0.75,VWS V14.01,2013-07-14 15:50:00,
2013-07-14 11:55:00,79.5,64.8,30.27,ESE,112,8.7,8.7,61,0.00,,BKN041,0.75,VWS V14.01,2013-07-14 15:55:00,
2013-07-14 12:00:00,80.7,66.5,30.27,SE,135,11.0,11.0,62,0.00,,BKN041,0.75,VWS V14.01,2013-07-14 16:00:00,
2013-07-14 12:05:00,81.1,66.8,30.27,East,90,8.1,8.1,62,0.00,,BKN041,0.75,VWS V14.01,2013-07-14 16:05:00,
2013-07-14 12:10:00,80.7,65.6,30.27,ENE,68,14.3,14.3,60,0.00,,BKN041,0.75,VWS V14.01,2013-07-14 16:10:00,
2013-07-14 12:16:00,81.3,66.5,30.27,SE,135,7.6,7.6,61,0.00,,BKN041,0.75,VWS V14.01,2013-07-14 16:16:00,
2013-07-14 12:21:00,81.1,68.2,30.27,ESE,112,6.3,6.3,65,0.00,,BKN041,0.75,VWS V14.01,2013-07-14 16:21:00,
2013-07-14 12:25:00,81.3,67.5,30.27,East,90,7.6,7.6,63,0.00,,BKN041,0.75,VWS V14.01,2013-07-14 16:25:00,
2013-07-14 12:31:00,81.6,65.9,30.27,NE,45,6.5,6.5,59,0.00,,BKN041,0.75,VWS V14.01,2013-07-14 16:31:00,
2013-07-14 12:36:00,81.1,66.4,30.27,East,90,6.5,6.5,61,0.00,,BKN037,0.75,VWS V14.01,2013-07-14 16:36:00,
2013-07-14 12:41:00,81.4,64.8,30.27,East,90,5.8,5.8,57,0.00,,BKN037,0.75,VWS V14.01,2013-07-14 16:41:00,
2013-07-14 12:46:00,81.3,65.6,30.27,ESE,112,9.2,9.2,59,0.00,,BKN037,0.75,VWS V14.01,2013-07-14 16:46:00,
2013-07-14 12:51:00,81.4,65.8,30.27,East,90,6.0,6.0,59,0.00,,BKN037,0.75,VWS V14.01,2013-07-14 16:51:00,
2013-07-14 12:56:00,80.0,65.4,30.27,ESE,112,8.5,8.5,61,0.00,,BKN037,0.75,VWS V14.01,2013-07-14 16:56:00,
2013-07-14 13:01:00,80.5,68.6,30.27,ESE,112,6.5,6.5,67,0.00,,BKN037,0.75,VWS V14.01,2013-07-14 17:01:00,
2013-07-14 13:06:00,81.1,67.3,30.27,ESE,112,8.5,8.5,63,0.00,,BKN037,0.75,VWS V14.01,2013-07-14 17:06:00,
2013-07-14 13:11:00,81.4,66.2,30.27,NE,45,7.6,7.6,60,0.00,,BKN037,0.75,VWS V14.01,2013-07-14 17:11:00,
2013-07-14 13:16:00,82.5,68.2,30.27,ESE,112,12.5,12.5,62,0.00,,BKN037,0.75,VWS V14.01,2013-07-14 17:16:00,
2013-07-14 13:21:00,82.0,65.8,30.27,ESE,112,7.4,7.4,58,0.00,,BKN037,0.75,VWS V14.01,2013-07-14 17:21:00,
2013-07-14 13:26:00,82.3,68.0,30.24,East,90,5.8,5.8,62,0.00,,BKN037,0.75,VWS V14.01,2013-07-14 17:26:00,
2013-07-14 13:31:00,82.5,66.3,30.24,ESE,112,10.5,10.5,58,0.00,,BKN037,0.75,VWS V14.01,2013-07-14 17:31:00,
2013-07-14 13:36:00,82.5,65.8,30.24,ESE,112,12.3,12.3,57,0.00,,SCT085,0.75,VWS V14.01,2013-07-14 17:36:00,
2013-07-14 13:41:00,83.1,65.2,30.27,ESE,112,8.1,8.1,55,0.00,,SCT085,0.75,VWS V14.01,2013-07-14 17:41:00,
2013-07-14 13:46:00,83.6,64.1,30.27,SE,135,7.6,7.6,52,0.00,,SCT085,0.75,VWS V14.01,2013-07-14 17:46:00,
2013-07-14 13:52:00,83.6,63.6,30.27,ESE,112,6.5,6.5,51,0.00,,SCT085,0.75,VWS V14.01,2013-07-14 17:52:00,
2013-07-14 13:57:00,84.0,62.8,30.24,ESE,112,10.5,10.5,49,0.00,,SCT085,0.75,VWS V14.01,2013-07-14 17:57:00,
2013-07-14 14:02:00,84.3,63.7,30.24,ESE,112,8.7,8.7,50,0.00,,SCT085,0.75,VWS V14.01,2013-07-14 18:02:00,
2013-07-14 14:07:00,84.3,64.8,30.24,SE,135,10.5,10.5,52,0.00,,SCT085,0.75,VWS V14.01,2013-07-14 18:07:00,
2013-07-14 14:12:00,83.1,63.1,30.24,East,90,5.6,5.6,51,0.00,,SCT085,0.75,VWS V14.01,2013-07-14 18:12:00,
2013-07-14 14:17:00,82.5,64.7,30.24,East,90,9.8,9.8,55,0.00,,SCT085,0.75,VWS V14.01,2013-07-14 18:17:00,
2013-07-14 14:22:00,83.1,64.2,30.24,SSE,158,7.4,7.4,53,0.00,,SCT085,0.75,VWS V14.01,2013-07-14 18:22:00,
2013-07-14 14:27:00,83.8,63.2,30.24,ESE,112,8.1,8.1,50,0.00,,SCT085,0.75,VWS V14.01,2013-07-14 18:27:00,
2013-07-14 14:32:00,79.8,63.2,30.24,East,90,15.9,15.9,57,0.00,,SCT085,0.75,VWS V14.01,2013-07-14 18:32:00,
2013-07-14 14:37:00,76.8,63.7,30.24,ESE,112,14.5,14.5,64,0.00,,SCT043,0.75,VWS V14.01,2013-07-14 18:37:00,
2013-07-14 14:42:00,75.5,65.0,30.24,ESE,112,9.8,9.8,70,0.00,,SCT043,0.75,VWS V14.01,2013-07-14 18:42:00,
2013-07-14 14:47:00,75.9,66.6,30.24,ESE,112,5.8,5.8,73,0.00,,SCT043,0.75,VWS V14.01,2013-07-14 18:47:00,
2013-07-14 14:52:00,77.5,70.8,30.24,ESE,112,3.8,3.8,80,0.00,,SCT043,0.75,VWS V14.01,2013-07-14 18:52:00,
2013-07-14 14:57:00,78.2,67.6,30.24,East,90,5.6,5.6,70,0.00,,SCT043,0.75,VWS V14.01,2013-07-14 18:57:00,
2013-07-14 15:02:00,79.5,66.7,30.24,East,90,6.0,6.0,65,0.00,,SCT043,0.75,VWS V14.01,2013-07-14 19:02:00,
2013-07-14 15:08:00,80.7,67.9,30.24,ESE,112,7.6,7.6,65,0.00,,SCT043,0.75,VWS V14.01,2013-07-14 19:08:00,
2013-07-14 15:13:00,80.9,66.7,30.24,ESE,112,9.8,9.8,62,0.00,,SCT043,0.75,VWS V14.01,2013-07-14 19:13:00,
2013-07-14 15:18:00,81.1,65.4,30.24,ESE,112,9.4,9.4,59,0.00,,SCT043,0.75,VWS V14.01,2013-07-14 19:18:00,
2013-07-14 15:23:00,81.4,66.2,30.24,East,90,6.3,6.3,60,0.00,,SCT043,0.75,VWS V14.01,2013-07-14 19:23:00,
2013-07-14 15:28:00,81.3,66.1,30.24,East,90,9.6,9.6,60,0.00,,SCT043,0.75,VWS V14.01,2013-07-14 19:28:00,
2013-07-14 15:33:00,81.3,67.0,30.24,ESE,112,9.6,9.6,62,0.00,,SCT043,0.75,VWS V14.01,2013-07-14 19:33:00,
2013-07-14 15:38:00,82.5,67.7,30.24,East,90,7.4,7.4,61,0.00,,-RA,0.75,VWS V14.01,2013-07-14 19:38:00,
2013-07-14 15:43:00,83.1,66.3,30.21,ESE,112,6.5,6.5,57,0.00,,-RA,0.75,VWS V14.01,2013-07-14 19:43:00,
2013-07-14 15:48:00,83.4,67.1,30.21,East,90,7.8,7.8,58,0.00,,-RA,0.75,VWS V14.01,2013-07-14 19:48:00,
2013-07-14 15:53:00,83.6,67.3,30.21,ESE,112,8.5,8.5,58,0.00,,-RA,0.75,VWS V14.01,2013-07-14 19:53:00,
2013-07-14 15:54:00,83.4,65.1,30.21,ESE,112,6.7,6.7,54,0.00,,-RA,0.75,VWS V14.01,2013-07-14 19:54:00,
2013-07-14 15:59:00,83.2,66.4,30.21,ESE,112,6.3,6.3,57,0.00,,-RA,0.75,VWS V14.01,2013-07-14 19:59:00,
2013-07-14 16:04:00,83.4,66.6,30.21,East,90,9.8,9.8,57,0.00,,-RA,0.75,VWS V14.01,2013-07-14 20:04:00,
2013-07-14 16:09:00,83.2,64.9,30.21,ESE,112,7.6,7.6,54,0.00,,-RA,0.75,VWS V14.01,2013-07-14 20:09:00,
2013-07-14 16:15:00,83.8,65.4,30.21,ESE,112,5.6,5.6,54,0.00,,-RA,0.75,VWS V14.01,2013-07-14 20:15:00,
2013-07-14 16:20:00,84.0,66.6,30.21,East,90,8.7,8.7,56,0.00,,-RA,0.75,VWS V14.01,2013-07-14 20:20:00,
2013-07-14 16:25:00,84.0,65.6,30.21,East,90,8.1,8.1,54,0.00,,-RA,0.75,VWS V14.01,2013-07-14 20:25:00,
2013-07-14 16:30:00,84.5,68.1,30.21,East,90,5.8,5.8,58,0.00,,-RA,0.75,VWS V14.01,2013-07-14 20:30:00,
2013-07-14 16:35:00,84.0,64.5,30.21,ESE,112,5.4,5.4,52,0.00,,-RA,0.75,VWS V14.01,2013-07-14 20:35:00,
2013-07-14 16:40:00,84.7,65.7,30.21,East,90,6.3,6.3,53,0.00,,CLR,0.75,VWS V14.01,2013-07-14 20:40:00,
2013-07-14 16:45:00,84.3,63.7,30.21,East,90,10.1,10.1,50,0.00,,CLR,0.75,VWS V14.01,2013-07-14 20:45:00,
2013-07-14 16:50:00,84.5,65.5,30.21,ESE,112,6.3,6.3,53,0.00,,CLR,0.75,VWS V14.01,2013-07-14 20:50:00,
2013-07-14 16:55:00,84.5,63.8,30.21,ESE,112,7.4,7.4,50,0.00,,CLR,0.75,VWS V14.01,2013-07-14 20:55:00,
2013-07-14 17:00:00,84.9,63.0,30.21,SE,135,7.6,7.6,48,0.00,,CLR,0.75,VWS V14.01,2013-07-14 21:00:00,
2013-07-14 17:05:00,84.9,64.2,30.21,ESE,112,5.8,5.8,50,0.00,,CLR,0.75,VWS V14.01,2013-07-14 21:05:00,
2013-07-14 17:10:00,85.2,65.1,30.21,East,90,4.7,4.7,51,0.00,,CLR,0.75,VWS V14.01,2013-07-14 21:10:00,
2013-07-14 17:15:00,85.0,66.0,30.18,ESE,112,5.8,5.8,53,0.00,,CLR,0.75,VWS V14.01,2013-07-14 21:15:00,
2013-07-14 17:20:00,84.9,66.9,30.18,East,90,6.0,6.0,55,0.00,,CLR,0.75,VWS V14.01,2013-07-14 21:20:00,
2013-07-14 17:25:00,84.1,62.3,30.18,East,90,7.4,7.4,48,0.00,,CLR,0.75,VWS V14.01,2013-07-14 21:25:00,
2013-07-14 17:30:00,84.3,63.7,30.21,ESE,112,10.1,10.1,50,0.00,,CLR,0.75,VWS V14.01,2013-07-14 21:30:00,
2013-07-14 17:35:00,84.1,61.1,30.21,East,90,7.4,7.4,46,0.00,,CLR,0.75,VWS V14.01,2013-07-14 21:35:00,
2013-07-14 17:41:00,84.7,63.4,30.21,East,90,8.1,8.1,49,0.00,,CLR,0.75,VWS V14.01,2013-07-14 21:41:00,
2013-07-14 17:46:00,84.1,62.9,30.21,ENE,68,5.6,5.6,49,0.00,,CLR,0.75,VWS V14.01,2013-07-14 21:46:00,
2013-07-14 17:51:00,84.0,63.9,30.21,East,90,3.6,3.6,51,0.00,,CLR,0.75,VWS V14.01,2013-07-14 21:51:00,
2013-07-14 17:56:00,84.0,62.8,30.21,SE,135,8.7,8.7,49,0.00,,CLR,0.75,VWS V14.01,2013-07-14 21:56:00,
2013-07-14 18:01:00,84.0,63.9,30.21,ESE,112,5.4,5.4,51,0.00,,CLR,0.75,VWS V14.01,2013-07-14 22:01:00,
2013-07-14 18:06:00,81.1,65.9,30.21,East,90,9.6,9.6,60,0.00,,CLR,0.75,VWS V14.01,2013-07-14 22:06:00,
2013-07-14 18:11:00,80.2,65.5,30.21,ESE,112,6.0,6.0,61,0.00,,CLR,0.75,VWS V14.01,2013-07-14 22:11:00,
2013-07-14 18:16:00,80.0,65.4,30.21,East,90,4.9,4.9,61,0.00,,CLR,0.75,VWS V14.01,2013-07-14 22:16:00,
2013-07-14 18:21:00,79.8,66.6,30.21,East,90,5.8,5.8,64,0.00,,CLR,0.75,VWS V14.01,2013-07-14 22:21:00,
2013-07-14 18:26:00,79.3,66.5,30.24,ENE,68,4.0,4.0,65,0.00,,CLR,0.75,VWS V14.01,2013-07-14 22:26:00,
2013-07-14 18:32:00,78.7,66.4,30.24,ENE,68,10.1,10.1,66,0.00,,CLR,0.75,VWS V14.01,2013-07-14 22:32:00,
2013-07-14 18:37:00,78.2,66.4,30.24,East,90,5.6,5.6,67,0.00,,-RA,0.75,VWS V14.01,2013-07-14 22:37:00,
2013-07-14 18:41:00,78.0,66.6,30.24,East,90,5.8,5.8,68,0.00,,-RA,0.75,VWS V14.01,2013-07-14 22:41:00,
2013-07-14 18:47:00,77.8,66.9,30.24,ENE,68,5.6,5.6,69,0.00,,-RA,0.75,VWS V14.01,2013-07-14 22:47:00,
2013-07-14 18:52:00,77.5,66.9,30.24,NE,45,4.0,4.0,70,0.00,,RA,0.75,VWS V14.01,2013-07-14 22:52:00,
2013-07-14 18:57:00,77.3,67.2,30.21,NE,45,5.8,5.8,71,0.00,,RA,0.75,VWS V14.01,2013-07-14 22:57:00,
2013-07-14 19:02:00,77.1,67.8,30.21,ENE,68,3.8,3.8,73,0.00,,RA,0.75,VWS V14.01,2013-07-14 23:02:00,
2013-07-14 19:07:00,76.8,67.8,30.21,ENE,68,5.6,5.6,74,0.00,,RA,0.75,VWS V14.01,2013-07-14 23:07:00,
2013-07-14 19:12:00,76.8,67.8,30.21,NE,45,4.0,4.0,74,0.00,,RA,0.75,VWS V14.01,2013-07-14 23:12:00,
2013-07-14 19:17:00,76.8,68.6,30.21,ENE,68,2.9,2.9,76,0.00,,RA,0.75,VWS V14.01,2013-07-14 23:17:00,
2013-07-14 19:22:00,76.8,69.0,30.21,NE,45,2.9,2.9,77,0.00,,RA,0.75,VWS V14.01,2013-07-14 23:22:00,
2013-07-14 19:27:00,76.8,68.6,30.24,ENE,68,3.1,3.1,76,0.00,,RA,0.75,VWS V14.01,2013-07-14 23:27:00,
2013-07-14 19:32:00,76.8,67.8,30.24,ENE,68,4.3,4.3,74,0.00,,RA,0.75,VWS V14.01,2013-07-14 23:32:00,
2013-07-14 19:37:00,76.8,68.2,30.24,ENE,68,4.9,4.9,75,0.00,,BKN095,0.75,VWS V14.01,2013-07-14 23:37:00,
2013-07-14 19:42:00,76.6,68.5,30.24,ENE,68,2.9,2.9,76,0.00,,BKN095,0.75,VWS V14.01,2013-07-14 23:42:00,
2013-07-14 19:47:00,76.6,68.1,30.24,ENE,68,4.0,4.0,75,0.00,,BKN095,0.75,VWS V14.01,2013-07-14 23:47:00,
2013-07-14 19:52:00,76.4,68.3,30.24,East,90,3.4,3.4,76,0.00,,BKN095,0.75,VWS V14.01,2013-07-14 23:52:00,
2013-07-14 19:57:00,76.4,68.7,30.24,ENE,68,3.1,3.1,77,0.00,,BKN095,0.75,VWS V14.01,2013-07-14 23:57:00,
2013-07-14 20:02:00,76.2,69.2,30.24,ENE,68,3.6,3.6,79,0.00,,BKN095,0.75,VWS V14.01,2013-07-15 00:02:00,
2013-07-14 20:07:00,76.0,69.1,30.24,East,90,4.3,4.3,79,0.00,,CLR,0.75,VWS V14.01,2013-07-15 00:07:00,
2013-07-14 20:12:00,76.0,69.4,30.24,ENE,68,4.0,4.0,80,0.00,,CLR,0.75,VWS V14.01,2013-07-15 00:12:00,
2013-07-14 20:17:00,75.9,69.6,30.24,ENE,68,3.8,3.8,81,0.00,,CLR,0.75,VWS V14.01,2013-07-15 00:17:00,
2013-07-14 20:18:00,76.0,69.8,30.24,ENE,68,3.4,3.4,81,0.00,,CLR,0.75,VWS V14.01,2013-07-15 00:18:00,
2013-07-14 20:23:00,75.9,70.0,30.24,East,90,2.9,2.9,82,0.00,,CLR,0.75,VWS V14.01,2013-07-15 00:23:00,
2013-07-14 20:28:00,75.7,70.2,30.24,East,90,3.4,3.4,83,0.00,,CLR,0.75,VWS V14.01,2013-07-15 00:28:00,
2013-07-14 20:34:00,75.5,70.3,30.24,ENE,68,3.1,3.1,84,0.00,,CLR,0.75,VWS V14.01,2013-07-15 00:34:00,
2013-07-14 20:39:00,75.3,70.8,30.24,ENE,68,3.1,3.1,86,0.00,,CLR,0.75,VWS V14.01,2013-07-15 00:39:00,
2013-07-14 20:44:00,75.3,71.2,30.24,ENE,68,2.5,2.5,87,0.00,,CLR,0.75,VWS V14.01,2013-07-15 00:44:00,
2013-07-14 20:49:00,75.3,71.5,30.24,NE,45,1.3,1.3,88,0.00,,CLR,0.75,VWS V14.01,2013-07-15 00:49:00,
2013-07-14 20:54:00,75.3,71.5,30.24,NE,45,2.0,2.0,88,0.00,,CLR,0.75,VWS V14.01,2013-07-15 00:54:00,
2013-07-14 20:59:00,75.0,71.8,30.24,NE,45,2.9,2.9,90,0.00,,CLR,0.75,VWS V14.01,2013-07-15 00:59:00,
2013-07-14 21:04:00,75.0,72.5,30.24,NE,45,2.9,2.9,92,0.00,,CLR,0.75,VWS V14.01,2013-07-15 01:04:00,
2013-07-14 21:09:00,75.1,72.7,30.24,NE,45,2.0,2.0,92,0.00,,CLR,0.75,VWS V14.01,2013-07-15 01:09:00,
2013-07-14 21:14:00,75.5,73.0,30.24,East,90,4.0,4.0,92,0.00,,CLR,0.75,VWS V14.01,2013-07-15 01:14:00,
2013-07-14 21:19:00,75.7,73.2,30.24,East,90,2.5,2.5,92,0.00,,CLR,0.75,VWS V14.01,2013-07-15 01:19:00,
2013-07-14 21:24:00,75.9,73.4,30.24,ENE,68,4.0,4.0,92,0.00,,CLR,0.75,VWS V14.01,2013-07-15 01:24:00,
2013-07-14 21:29:00,76.2,74.1,30.27,NE,45,4.3,4.3,93,0.00,,CLR,0.75,VWS V14.01,2013-07-15 01:29:00,
2013-07-14 21:34:00,76.2,74.1,30.27,East,90,4.3,4.3,93,0.00,,CLR,0.75,VWS V14.01,2013-07-15 01:34:00,
2013-07-14 21:39:00,76.2,74.1,30.27,ENE,68,2.9,2.9,93,0.00,,CLR,0.75,VWS V14.01,2013-07-15 01:39:00,
2013-07-14 21:44:00,76.2,74.4,30.27,NE,45,3.1,3.1,94,0.00,,CLR,0.75,VWS V14.01,2013-07-15 01:44:00,
2013-07-14 21:49:00,76.2,74.1,30.27,East,90,2.7,2.7,93,0.00,,CLR,0.75,VWS V14.01,2013-07-15 01:49:00,
2013-07-14 21:54:00,75.9,73.7,30.27,East,90,2.0,2.0,93,0.00,,CLR,0.75,VWS V14.01,2013-07-15 01:54:00,
2013-07-14 21:59:00,75.9,74.0,30.27,East,90,2.9,2.9,94,0.00,,CLR,0.75,VWS V14.01,2013-07-15 01:59:00,
2013-07-14 22:05:00,75.9,73.7,30.27,East,90,3.8,3.8,93,0.00,,CLR,0.75,VWS V14.01,2013-07-15 02:05:00,
2013-07-14 22:10:00,75.9,73.4,30.27,East,90,3.6,3.6,92,0.00,,CLR,0.75,VWS V14.01,2013-07-15 02:10:00,
2013-07-14 22:15:00,75.7,72.5,30.27,ENE,68,2.7,2.7,90,0.00,,CLR,0.75,VWS V14.01,2013-07-15 02:15:00,
2013-07-14 22:20:00,75.7,71.9,30.27,ENE,68,2.2,2.2,88,0.00,,CLR,0.75,VWS V14.01,2013-07-15 02:20:00,
2013-07-14 22:25:00,75.7,71.2,30.27,NE,45,2.9,2.9,86,0.00,,CLR,0.75,VWS V14.01,2013-07-15 02:25:00,
2013-07-14 22:30:00,75.5,71.0,30.27,ENE,68,2.9,2.9,86,0.00,,CLR,0.75,VWS V14.01,2013-07-15 02:30:00,
2013-07-14 22:35:00,75.3,70.5,30.27,ENE,68,2.0,2.0,85,0.00,,CLR,0.75,VWS V14.01,2013-07-15 02:35:00,
2013-07-14 22:40:00,75.3,70.5,30.27,NE,45,2.2,2.2,85,0.00,,CLR,0.75,VWS V14.01,2013-07-15 02:40:00,
2013-07-14 22:45:00,75.1,70.3,30.27,ENE,68,1.3,1.3,85,0.00,,CLR,0.75,VWS V14.01,2013-07-15 02:45:00,
2013-07-14 22:50:00,75.1,70.3,30.27,ENE,68,2.7,2.7,85,0.00,,CLR,0.75,VWS V14.01,2013-07-15 02:50:00,
2013-07-14 22:55:00,75.0,70.5,30.27,ENE,68,2.0,2.0,86,0.00,,CLR,0.75,VWS V14.01,2013-07-15 02:55:00,
2013-07-14 23:00:00,74.8,70.3,30.27,ENE,68,2.5,2.5,86,0.00,,CLR,0.75,VWS V14.01,2013-07-15 03:00:00,
2013-07-14 23:05:00,74.6,70.5,30.27,East,90,2.7,2.7,87,0.00,,CLR,0.75,VWS V14.01,2013-07-15 03:05:00,
2013-07-14 23:10:00,74.6,70.5,30.27,ENE,68,2.5,2.5,87,0.00,,CLR,0.75,VWS V14.01,2013-07-15 03:10:00,
2013-07-14 23:15:00,74.6,70.5,30.27,East,90,2.2,2.2,87,0.00,,CLR,0.75,VWS V14.01,2013-07-15 03:15:00,
2013-07-14 23:20:00,74.4,71.0,30.27,East,90,2.5,2.5,89,0.00,,CLR,0.75,VWS V14.01,2013-07-15 03:20:00,
2013-07-14 23:25:00,74.2,71.1,30.27,East,90,2.0,2.0,90,0.00,,CLR,0.75,VWS V14.01,2013-07-15 03:25:00,
2013-07-14 23:30:00,74.4,71.3,30.24,ENE,68,1.3,1.3,90,0.00,,CLR,0.75,VWS V14.01,2013-07-15 03:30:00,
2013-07-14 23:35:00,74.2,71.4,30.24,East,90,3.1,3.1,91,0.00,,CLR,0.75,VWS V14.01,2013-07-15 03:35:00,
2013-07-14 23:41:00,74.4,71.6,30.24,ENE,68,2.5,2.5,91,0.00,,CLR,0.75,VWS V14.01,2013-07-15 03:41:00,
2013-07-14 23:46:00,74.6,70.8,30.27,ENE,68,3.6,3.6,88,0.00,,CLR,0.75,VWS V14.01,2013-07-15 03:46:00,
2013-07-14 23:51:00,74.6,70.8,30.27,NE,45,2.9,2.9,88,0.00,,CLR,0.75,VWS V14.01,2013-07-15 03:51:00,
2013-07-14 23:56:00,74.6,71.2,30.27,ENE,68,4.0,4.0,89,0.00,,CLR,0.75,VWS V14.01,2013-07-15 03:56:00,